Time,TemperatureF,DewpointF,PressureIn,WindDirection,WindDirectionDegrees,WindSpeedMPH,WindSpeedGustMPH,Humidity,HourlyPrecipIn,Conditions,Clouds,dailyrainin,SoftwareType,DateUTC
2013-04-12 00:04:00,53.3,47.3,29.63,WSW,248,4.5,10.5,80,0.00,,,0.00,WUHU216HW,2013-04-11 22:04:00,
2013-04-12 00:09:00,53.3,47.3,29.63,SSE,158,6.0,10.5,80,0.00,,,0.00,WUHU216HW,2013-04-11 22:09:00,
2013-04-12 00:14:00,53.1,47.2,29.63,SSW,203,4.7,11.6,80,0.00,,,0.00,WUHU216HW,2013-04-11 22:14:00,
2013-04-12 00:19:00,52.9,47.3,29.63,SSE,158,5.4,11.6,81,0.00,,,0.00,WUHU216HW,2013-04-11 22:19:00,
2013-04-12 00:24:00,52.9,47.3,29.63,SW,225,5.4,8.9,81,0.00,,,0.00,WUHU216HW,2013-04-11 22:24:00,
2013-04-12 00:29:00,52.9,47.3,29.63,South,180,6.9,9.8,81,0.00,,,0.00,WUHU216HW,2013-04-11 22:29:00,
2013-04-12 00:34:00,52.9,47.3,29.62,SW,225,4.7,9.8,81,0.00,,,0.00,WUHU216HW,2013-04-11 22:34:00,
2013-04-12 00:39:00,52.9,47.3,29.62,SSW,203,4.0,8.9,81,0.00,,,0.00,WUHU216HW,2013-04-11 22:39:00,
2013-04-12 00:44:00,52.9,47.3,29.62,SW,225,6.7,7.6,81,0.00,,,0.00,WUHU216HW,2013-04-11 22:44:00,
2013-04-12 00:49:00,52.9,47.3,29.61,SSW,203,5.6,8.3,81,0.00,,,0.00,WUHU216HW,2013-04-11 22:49:00,
2013-04-12 00:54:00,52.7,47.4,29.61,WSW,248,3.8,8.3,82,0.00,,,0.00,WUHU216HW,2013-04-11 22:54:00,
2013-04-12 01:00:00,52.6,47.3,29.61,SW,225,9.6,9.6,82,0.00,,,0.00,WUHU216HW,2013-04-11 23:00:00,
2013-04-12 01:05:00,52.6,47.3,29.61,SE,135,6.3,9.6,82,0.00,,,0.00,WUHU216HW,2013-04-11 23:05:00,
2013-04-12 01:10:00,52.4,47.1,29.61,WSW,248,4.5,9.6,82,0.00,,,0.00,WUHU216HW,2013-04-11 23:10:00,
2013-04-12 01:14:00,52.4,47.1,29.61,South,180,3.8,8.3,82,0.00,,,0.00,WUHU216HW,2013-04-11 23:14:00,
2013-04-12 01:20:00,52.4,46.7,29.61,SW,225,6.5,8.3,81,0.00,,,0.00,WUHU216HW,2013-04-11 23:20:00,
2013-04-12 01:25:00,52.4,46.7,29.61,SSW,203,5.6,7.2,81,0.00,,,0.00,WUHU216HW,2013-04-11 23:25:00,
2013-04-12 01:30:00,52.4,46.7,29.61,SW,225,4.0,9.6,81,0.00,,,0.00,WUHU216HW,2013-04-11 23:30:00,
2013-04-12 01:35:00,52.4,47.1,29.60,SW,225,6.7,9.6,82,0.00,,,0.00,WUHU216HW,2013-04-11 23:35:00,
2013-04-12 01:40:00,52.2,46.9,29.60,South,180,6.3,6.7,82,0.00,,,0.00,WUHU216HW,2013-04-11 23:40:00,
2013-04-12 01:45:00,52.2,46.9,29.60,SW,225,6.7,7.6,82,0.00,,,0.00,WUHU216HW,2013-04-11 23:45:00,
2013-04-12 01:50:00,52.2,46.9,29.61,SW,225,5.4,9.8,82,0.00,,,0.00,WUHU216HW,2013-04-11 23:50:00,
2013-04-12 01:55:00,52.2,46.9,29.60,SSW,203,8.7,9.8,82,0.00,,,0.00,WUHU216HW,2013-04-11 23:55:00,
2013-04-12 02:00:00,52.2,46.9,29.60,SSE,158,4.7,9.8,82,0.00,,,0.00,WUHU216HW,2013-04-12 00:00:00,
2013-04-12 02:05:00,52.0,46.7,29.60,SW,225,6.0,9.2,82,0.00,,,0.00,WUHU216HW,2013-04-12 00:05:00,
2013-04-12 02:10:00,51.8,46.8,29.60,South,180,6.9,7.4,83,0.00,,,0.00,WUHU216HW,2013-04-12 00:10:00,
2013-04-12 02:15:00,51.8,47.2,29.60,SSW,203,4.0,7.4,84,0.00,,,0.00,WUHU216HW,2013-04-12 00:15:00,
2013-04-12 02:20:00,51.7,47.0,29.59,SSW,203,4.7,6.9,84,0.01,,,0.01,WUHU216HW,2013-04-12 00:20:00,
2013-04-12 02:25:00,51.5,47.1,29.59,SSW,203,2.2,6.7,85,0.01,,,0.01,WUHU216HW,2013-04-12 00:25:00,
2013-04-12 02:30:00,51.5,47.1,29.59,South,180,3.6,6.7,85,0.01,,,0.01,WUHU216HW,2013-04-12 00:30:00,
2013-04-12 02:35:00,51.3,47.2,29.59,SSW,203,6.9,8.5,86,0.01,,,0.01,WUHU216HW,2013-04-12 00:35:00,
2013-04-12 02:40:00,51.1,47.0,29.59,South,180,9.4,9.4,86,0.01,,,0.01,WUHU216HW,2013-04-12 00:40:00,
2013-04-12 02:45:00,51.1,47.0,29.59,SSW,203,6.9,9.4,86,0.01,,,0.01,WUHU216HW,2013-04-12 00:45:00,
2013-04-12 02:50:00,51.1,47.4,29.59,SW,225,7.2,9.4,87,0.02,,,0.02,WUHU216HW,2013-04-12 00:50:00,
2013-04-12 02:55:00,50.9,47.2,29.59,SSE,158,6.3,8.7,87,0.02,,,0.02,WUHU216HW,2013-04-12 00:55:00,
2013-04-12 03:00:00,50.8,47.3,29.59,SE,135,4.3,8.7,88,0.02,,,0.02,WUHU216HW,2013-04-12 01:00:00,
2013-04-12 03:05:00,50.8,47.3,29.58,SW,225,6.0,8.5,88,0.02,,,0.02,WUHU216HW,2013-04-12 01:05:00,
2013-04-12 03:10:00,50.8,47.3,29.58,South,180,3.4,7.2,88,0.02,,,0.02,WUHU216HW,2013-04-12 01:10:00,
2013-04-12 03:15:00,50.8,47.0,29.58,SSE,158,2.0,7.2,87,0.01,,,0.02,WUHU216HW,2013-04-12 01:15:00,
2013-04-12 03:20:00,50.8,47.0,29.58,SW,225,4.7,6.5,87,0.02,,,0.03,WUHU216HW,2013-04-12 01:20:00,
2013-04-12 03:25:00,50.8,47.0,29.58,SSW,203,7.6,7.6,87,0.02,,,0.03,WUHU216HW,2013-04-12 01:25:00,
2013-04-12 03:30:00,50.8,47.3,29.58,SSW,203,4.0,7.6,88,0.02,,,0.03,WUHU216HW,2013-04-12 01:30:00,
2013-04-12 03:35:00,50.8,47.0,29.57,South,180,4.7,9.8,87,0.02,,,0.03,WUHU216HW,2013-04-12 01:35:00,
2013-04-12 03:40:00,50.8,47.0,29.57,South,180,6.9,9.8,87,0.02,,,0.03,WUHU216HW,2013-04-12 01:40:00,
2013-04-12 03:45:00,50.8,47.3,29.57,SW,225,6.7,6.9,88,0.01,,,0.03,WUHU216HW,2013-04-12 01:45:00,
2013-04-12 03:50:00,50.9,47.4,29.56,SSW,203,6.3,6.9,88,0.01,,,0.03,WUHU216HW,2013-04-12 01:50:00,
2013-04-12 03:55:00,50.9,47.4,29.56,SSW,203,6.5,6.9,88,0.01,,,0.03,WUHU216HW,2013-04-12 01:55:00,
2013-04-12 04:00:00,51.1,47.6,29.56,SSW,203,4.5,7.2,88,0.01,,,0.03,WUHU216HW,2013-04-12 02:00:00,
2013-04-12 04:05:00,50.9,47.4,29.56,South,180,4.0,7.2,88,0.01,,,0.03,WUHU216HW,2013-04-12 02:05:00,
2013-04-12 04:10:00,50.9,47.4,29.56,WSW,248,2.9,6.3,88,0.01,,,0.03,WUHU216HW,2013-04-12 02:10:00,
2013-04-12 04:15:00,50.8,47.3,29.56,SW,225,5.4,6.3,88,0.01,,,0.03,WUHU216HW,2013-04-12 02:15:00,
2013-04-12 04:20:00,50.9,47.2,29.55,SSW,203,1.8,6.0,87,0.00,,,0.03,WUHU216HW,2013-04-12 02:20:00,
2013-04-12 04:25:00,51.1,47.4,29.55,SW,225,2.9,5.8,87,0.00,,,0.03,WUHU216HW,2013-04-12 02:25:00,
2013-04-12 04:30:00,51.1,47.4,29.55,SSW,203,4.9,6.3,87,0.00,,,0.03,WUHU216HW,2013-04-12 02:30:00,
2013-04-12 04:35:00,51.1,47.0,29.56,SW,225,1.6,6.3,86,0.00,,,0.03,WUHU216HW,2013-04-12 02:35:00,
2013-04-12 04:40:00,51.1,47.0,29.55,WSW,248,3.4,4.9,86,0.00,,,0.03,WUHU216HW,2013-04-12 02:40:00,
2013-04-12 04:45:00,50.9,46.8,29.55,West,270,1.3,4.7,86,0.00,,,0.03,WUHU216HW,2013-04-12 02:45:00,
2013-04-12 04:50:00,50.8,46.6,29.55,SW,225,1.6,4.0,86,0.00,,,0.03,WUHU216HW,2013-04-12 02:50:00,
2013-04-12 04:55:00,50.8,46.6,29.55,SSW,203,1.8,1.8,86,0.00,,,0.03,WUHU216HW,2013-04-12 02:55:00,
2013-04-12 05:00:00,50.6,46.4,29.55,WSW,248,1.3,2.5,86,0.00,,,0.03,WUHU216HW,2013-04-12 03:00:00,
2013-04-12 05:05:00,50.6,46.4,29.56,SW,225,2.2,2.5,86,0.00,,,0.03,WUHU216HW,2013-04-12 03:05:00,
2013-04-12 05:10:00,50.6,46.4,29.56,WSW,248,1.8,3.4,86,0.00,,,0.03,WUHU216HW,2013-04-12 03:10:00,
2013-04-12 05:15:00,50.6,46.4,29.56,WSW,248,0.4,3.4,86,0.00,,,0.03,WUHU216HW,2013-04-12 03:15:00,
2013-04-12 05:20:00,50.4,46.6,29.55,WNW,293,0.0,2.0,87,0.00,,,0.03,WUHU216HW,2013-04-12 03:20:00,
2013-04-12 05:25:00,50.4,46.3,29.56,West,270,4.0,4.0,86,0.00,,,0.03,WUHU216HW,2013-04-12 03:25:00,
2013-04-12 05:30:00,50.4,46.3,29.57,WNW,293,0.9,4.0,86,0.00,,,0.03,WUHU216HW,2013-04-12 03:30:00,
2013-04-12 05:35:00,50.6,46.8,29.56,SE,135,1.3,4.0,87,0.01,,,0.04,WUHU216HW,2013-04-12 03:35:00,
2013-04-12 05:40:00,50.4,46.6,29.57,North,0,0.7,2.5,87,0.01,,,0.04,WUHU216HW,2013-04-12 03:40:00,
2013-04-12 05:45:00,50.4,46.6,29.56,SE,135,1.8,2.5,87,0.02,,,0.05,WUHU216HW,2013-04-12 03:45:00,
2013-04-12 05:50:00,50.2,46.5,29.56,NE,45,0.4,1.8,87,0.02,,,0.05,WUHU216HW,2013-04-12 03:50:00,
2013-04-12 05:55:00,50.0,46.3,29.56,ESE,113,0.4,1.8,87,0.02,,,0.05,WUHU216HW,2013-04-12 03:55:00,
2013-04-12 06:00:00,50.0,46.5,29.56,ESE,113,0.9,1.8,88,0.02,,,0.05,WUHU216HW,2013-04-12 04:00:00,
2013-04-12 06:05:00,50.0,46.5,29.55,SSE,158,0.7,1.8,88,0.02,,,0.05,WUHU216HW,2013-04-12 04:05:00,
2013-04-12 06:10:00,49.9,46.4,29.55,SSW,203,4.3,4.3,88,0.03,,,0.06,WUHU216HW,2013-04-12 04:10:00,
2013-04-12 06:15:00,49.9,46.4,29.55,SSW,203,4.5,4.5,88,0.03,,,0.06,WUHU216HW,2013-04-12 04:15:00,
2013-04-12 06:20:00,50.0,46.5,29.55,SW,225,4.7,4.7,88,0.03,,,0.06,WUHU216HW,2013-04-12 04:20:00,
2013-04-12 06:25:00,49.9,46.4,29.56,West,270,1.1,4.7,88,0.03,,,0.06,WUHU216HW,2013-04-12 04:25:00,
2013-04-12 06:30:00,49.9,46.4,29.57,WSW,248,2.9,4.9,88,0.03,,,0.06,WUHU216HW,2013-04-12 04:30:00,
2013-04-12 06:35:00,49.9,46.4,29.57,SW,225,2.0,4.9,88,0.02,,,0.06,WUHU216HW,2013-04-12 04:35:00,
2013-04-12 06:40:00,49.9,46.4,29.57,South,180,2.9,4.0,88,0.02,,,0.06,WUHU216HW,2013-04-12 04:40:00,
2013-04-12 06:45:00,50.0,46.9,29.57,SW,225,3.8,3.8,89,0.02,,,0.07,WUHU216HW,2013-04-12 04:45:00,
2013-04-12 06:50:00,50.0,46.9,29.57,SW,225,2.0,4.0,89,0.02,,,0.07,WUHU216HW,2013-04-12 04:50:00,
2013-04-12 06:55:00,50.0,46.9,29.58,North,0,1.8,4.0,89,0.02,,,0.07,WUHU216HW,2013-04-12 04:55:00,
2013-04-12 07:00:00,50.0,46.5,29.58,SW,225,1.3,2.5,88,0.05,,,0.10,WUHU216HW,2013-04-12 05:00:00,
2013-04-12 07:05:00,49.9,46.4,29.58,SSE,158,0.7,1.3,88,0.06,,,0.11,WUHU216HW,2013-04-12 05:05:00,
2013-04-12 07:10:00,49.9,46.4,29.58,SW,225,1.3,1.3,88,0.05,,,0.11,WUHU216HW,2013-04-12 05:10:00,
2013-04-12 07:15:00,49.9,46.7,29.58,SSW,203,2.2,2.5,89,0.05,,,0.11,WUHU216HW,2013-04-12 05:15:00,
2013-04-12 07:20:00,49.9,46.7,29.57,SSW,203,1.8,2.5,89,0.05,,,0.11,WUHU216HW,2013-04-12 05:20:00,
2013-04-12 07:25:00,50.0,46.9,29.57,SW,225,4.0,4.5,89,0.06,,,0.12,WUHU216HW,2013-04-12 05:25:00,
2013-04-12 07:30:00,50.2,47.3,29.58,SW,225,6.0,6.3,90,0.06,,,0.12,WUHU216HW,2013-04-12 05:30:00,
2013-04-12 07:35:00,50.6,47.7,29.57,SW,225,3.4,9.2,90,0.06,,,0.12,WUHU216HW,2013-04-12 05:35:00,
2013-04-12 07:40:00,50.8,47.9,29.58,WSW,248,4.9,9.2,90,0.05,,,0.12,WUHU216HW,2013-04-12 05:40:00,
2013-04-12 07:45:00,50.8,47.9,29.58,WSW,248,4.0,6.0,90,0.05,,,0.12,WUHU216HW,2013-04-12 05:45:00,
2013-04-12 07:50:00,50.9,48.1,29.58,SSW,203,3.4,6.0,90,0.05,,,0.12,WUHU216HW,2013-04-12 05:50:00,
2013-04-12 07:55:00,50.9,47.8,29.58,SW,225,1.8,4.7,89,0.03,,,0.12,WUHU216HW,2013-04-12 05:55:00,
2013-04-12 08:00:00,50.9,47.8,29.58,SSW,203,2.2,4.3,89,0.01,,,0.12,WUHU216HW,2013-04-12 06:00:00,
2013-04-12 08:05:00,50.8,47.6,29.58,SSW,203,1.1,4.3,89,0.01,,,0.12,WUHU216HW,2013-04-12 06:05:00,
2013-04-12 08:10:00,50.8,47.6,29.58,SSW,203,2.9,4.5,89,0.01,,,0.12,WUHU216HW,2013-04-12 06:10:00,
2013-04-12 08:15:00,50.9,48.1,29.58,South,180,6.3,6.7,90,0.01,,,0.12,WUHU216HW,2013-04-12 06:15:00,
2013-04-12 08:20:00,51.1,48.2,29.58,WSW,248,6.3,9.8,90,0.00,,,0.12,WUHU216HW,2013-04-12 06:20:00,
2013-04-12 08:25:00,51.8,49.0,29.58,SW,225,5.4,9.8,90,0.00,,,0.12,WUHU216HW,2013-04-12 06:25:00,
2013-04-12 08:30:00,51.8,49.0,29.58,WSW,248,6.3,7.6,90,0.00,,,0.12,WUHU216HW,2013-04-12 06:30:00,
2013-04-12 08:35:00,52.2,49.1,29.58,WSW,248,7.6,9.4,89,0.00,,,0.12,WUHU216HW,2013-04-12 06:35:00,
2013-04-12 08:40:00,52.6,49.1,29.59,SSW,203,6.9,9.6,88,0.00,,,0.12,WUHU216HW,2013-04-12 06:40:00,
2013-04-12 08:45:00,52.7,49.2,29.59,WSW,248,11.4,12.1,88,0.00,,,0.12,WUHU216HW,2013-04-12 06:45:00,
2013-04-12 08:50:00,52.9,49.2,29.60,WSW,248,8.7,12.1,87,0.00,,,0.12,WUHU216HW,2013-04-12 06:50:00,
2013-04-12 08:55:00,52.7,48.6,29.59,SW,225,6.7,12.8,86,0.00,,,0.12,WUHU216HW,2013-04-12 06:55:00,
2013-04-12 09:00:00,52.7,48.6,29.60,West,270,6.5,13.0,86,0.00,,,0.12,WUHU216HW,2013-04-12 07:00:00,
2013-04-12 09:05:00,52.6,48.4,29.60,West,270,6.9,13.0,86,0.00,,,0.12,WUHU216HW,2013-04-12 07:05:00,
2013-04-12 09:10:00,52.4,48.2,29.60,SW,225,6.0,10.5,86,0.00,,,0.12,WUHU216HW,2013-04-12 07:10:00,
2013-04-12 09:15:00,52.4,48.2,29.60,SW,225,5.4,10.5,86,0.00,,,0.12,WUHU216HW,2013-04-12 07:15:00,
2013-04-12 09:20:00,52.2,48.1,29.61,West,270,10.5,13.6,86,0.00,,,0.12,WUHU216HW,2013-04-12 07:20:00,
2013-04-12 09:25:00,52.0,47.9,29.61,WSW,248,6.0,13.6,86,0.00,,,0.12,WUHU216HW,2013-04-12 07:25:00,
2013-04-12 09:30:00,51.8,47.7,29.61,WSW,248,6.9,9.8,86,0.00,,,0.12,WUHU216HW,2013-04-12 07:30:00,
2013-04-12 09:35:00,51.8,48.1,29.61,WSW,248,6.9,9.8,87,0.00,,,0.12,WUHU216HW,2013-04-12 07:35:00,
2013-04-12 09:40:00,51.8,47.7,29.62,WSW,248,8.5,10.1,86,0.00,,,0.12,WUHU216HW,2013-04-12 07:40:00,
2013-04-12 09:45:00,51.8,47.7,29.62,WNW,293,9.4,10.3,86,0.00,,,0.12,WUHU216HW,2013-04-12 07:45:00,
2013-04-12 09:50:00,51.7,47.5,29.62,WSW,248,8.1,10.3,86,0.00,,,0.12,WUHU216HW,2013-04-12 07:50:00,
2013-04-12 09:55:00,51.8,47.7,29.62,West,270,6.9,10.7,86,0.00,,,0.12,WUHU216HW,2013-04-12 07:55:00,
2013-04-12 10:00:00,51.8,47.7,29.62,West,270,7.4,10.7,86,0.00,,,0.12,WUHU216HW,2013-04-12 08:00:00,
2013-04-12 10:05:00,51.8,47.4,29.63,WSW,248,8.7,8.7,85,0.00,,,0.12,WUHU216HW,2013-04-12 08:05:00,
2013-04-12 10:10:00,51.8,47.2,29.63,WNW,293,9.4,11.2,84,0.00,,,0.12,WUHU216HW,2013-04-12 08:10:00,
2013-04-12 10:15:00,52.0,47.4,29.63,WSW,248,9.2,14.5,84,0.00,,,0.12,WUHU216HW,2013-04-12 08:15:00,
2013-04-12 10:20:00,52.2,47.2,29.63,West,270,7.6,15.0,83,0.00,,,0.12,WUHU216HW,2013-04-12 08:20:00,
2013-04-12 10:25:00,52.2,46.9,29.63,West,270,8.7,15.0,82,0.00,,,0.12,WUHU216HW,2013-04-12 08:25:00,
2013-04-12 10:31:00,52.4,47.1,29.64,West,270,9.2,11.6,82,0.00,,,0.12,WUHU216HW,2013-04-12 08:31:00,
2013-04-12 10:36:00,52.6,47.3,29.64,West,270,6.9,13.4,82,0.00,,,0.12,WUHU216HW,2013-04-12 08:36:00,
2013-04-12 10:41:00,52.6,46.9,29.64,West,270,8.5,13.4,81,0.00,,,0.12,WUHU216HW,2013-04-12 08:41:00,
2013-04-12 10:46:00,52.6,46.9,29.64,West,270,7.6,11.2,81,0.00,,,0.12,WUHU216HW,2013-04-12 08:46:00,
2013-04-12 10:51:00,52.4,47.1,29.64,WSW,248,9.8,11.2,82,0.00,,,0.12,WUHU216HW,2013-04-12 08:51:00,
2013-04-12 10:56:00,52.2,46.9,29.65,West,270,6.0,10.1,82,0.00,,,0.12,WUHU216HW,2013-04-12 08:56:00,
2013-04-12 11:01:00,52.0,46.7,29.65,West,270,5.8,8.5,82,0.00,,,0.12,WUHU216HW,2013-04-12 09:01:00,
2013-04-12 11:06:00,52.0,47.0,29.65,WNW,293,6.3,8.5,83,0.00,,,0.12,WUHU216HW,2013-04-12 09:06:00,
2013-04-12 11:11:00,52.2,47.5,29.65,West,270,5.8,8.1,84,0.00,,,0.12,WUHU216HW,2013-04-12 09:11:00,
2013-04-12 11:16:00,52.7,47.4,29.65,WSW,248,6.7,12.8,82,0.00,,,0.12,WUHU216HW,2013-04-12 09:16:00,
2013-04-12 11:21:00,53.6,48.0,29.65,West,270,11.4,13.6,81,0.00,,,0.12,WUHU216HW,2013-04-12 09:21:00,
2013-04-12 11:26:00,53.6,47.3,29.65,WSW,248,10.5,15.0,79,0.00,,,0.12,WUHU216HW,2013-04-12 09:26:00,
2013-04-12 11:31:00,54.4,48.0,29.65,WSW,248,13.0,15.0,79,0.00,,,0.12,WUHU216HW,2013-04-12 09:31:00,
2013-04-12 11:36:00,54.7,48.7,29.65,WSW,248,12.5,13.2,80,0.00,,,0.12,WUHU216HW,2013-04-12 09:36:00,
2013-04-12 11:41:00,55.1,48.3,29.65,West,270,7.6,13.6,78,0.00,,,0.12,WUHU216HW,2013-04-12 09:41:00,
2013-04-12 11:46:00,55.6,48.5,29.66,WSW,248,9.2,13.6,77,0.00,,,0.12,WUHU216HW,2013-04-12 09:46:00,
2013-04-12 11:51:00,56.2,48.6,29.66,WNW,293,18.6,18.6,76,0.00,,,0.12,WUHU216HW,2013-04-12 09:51:00,
2013-04-12 11:56:00,55.4,48.0,29.66,WNW,293,10.3,18.6,76,0.00,,,0.12,WUHU216HW,2013-04-12 09:56:00,
2013-04-12 12:01:00,55.4,48.0,29.66,WSW,248,11.4,18.6,76,0.00,,,0.12,WUHU216HW,2013-04-12 10:01:00,
2013-04-12 12:06:00,55.1,46.9,29.67,WNW,293,11.4,13.4,74,0.00,,,0.12,WUHU216HW,2013-04-12 10:06:00,
2013-04-12 12:11:00,54.5,46.8,29.68,West,270,11.9,13.4,75,0.00,,,0.12,WUHU216HW,2013-04-12 10:11:00,
2013-04-12 12:17:00,54.2,46.8,29.68,West,270,10.7,12.3,76,0.00,,,0.12,WUHU216HW,2013-04-12 10:17:00,
2013-04-12 12:22:00,54.2,46.5,29.68,WSW,248,8.5,12.3,75,0.00,,,0.12,WUHU216HW,2013-04-12 10:22:00,
2013-04-12 12:27:00,54.4,47.0,29.68,WNW,293,9.8,12.8,76,0.00,,,0.12,WUHU216HW,2013-04-12 10:27:00,
2013-04-12 12:32:00,54.5,47.1,29.68,WSW,248,11.4,12.8,76,0.00,,,0.12,WUHU216HW,2013-04-12 10:32:00,
2013-04-12 12:37:00,54.4,46.6,29.68,West,270,11.4,14.3,75,0.00,,,0.12,WUHU216HW,2013-04-12 10:37:00,
2013-04-12 12:42:00,54.4,46.6,29.69,West,270,9.8,14.3,75,0.00,,,0.12,WUHU216HW,2013-04-12 10:42:00,
2013-04-12 12:47:00,54.4,46.6,29.69,West,270,10.5,12.5,75,0.00,,,0.12,WUHU216HW,2013-04-12 10:47:00,
2013-04-12 12:52:00,54.7,47.3,29.69,WSW,248,10.3,11.4,76,0.00,,,0.12,WUHU216HW,2013-04-12 10:52:00,
2013-04-12 12:58:00,55.6,48.2,29.69,WSW,248,8.1,12.5,76,0.00,,,0.12,WUHU216HW,2013-04-12 10:58:00,
2013-04-12 13:03:00,56.0,47.8,29.69,West,270,9.8,12.5,74,0.00,,,0.12,WUHU216HW,2013-04-12 11:03:00,
2013-04-12 13:08:00,55.8,47.6,29.70,WSW,248,8.5,13.4,74,0.00,,,0.12,WUHU216HW,2013-04-12 11:08:00,
2013-04-12 13:13:00,55.8,47.6,29.71,West,270,9.4,13.4,74,0.00,,,0.12,WUHU216HW,2013-04-12 11:13:00,
2013-04-12 13:18:00,55.1,46.6,29.70,West,270,8.1,11.6,73,0.00,,,0.12,WUHU216HW,2013-04-12 11:18:00,
2013-04-12 13:23:00,54.7,46.9,29.71,West,270,9.2,14.3,75,0.00,,,0.12,WUHU216HW,2013-04-12 11:23:00,
2013-04-12 13:28:00,55.1,46.9,29.71,WSW,248,7.6,14.3,74,0.00,,,0.12,WUHU216HW,2013-04-12 11:28:00,
2013-04-12 13:33:00,55.3,47.4,29.71,West,270,8.5,9.2,75,0.00,,,0.12,WUHU216HW,2013-04-12 11:33:00,
2013-04-12 13:38:00,54.7,46.3,29.71,WSW,248,7.2,12.1,73,0.00,,,0.12,WUHU216HW,2013-04-12 11:38:00,
2013-04-12 13:43:00,54.4,46.6,29.71,WSW,248,8.7,12.1,75,0.00,,,0.12,WUHU216HW,2013-04-12 11:43:00,
2013-04-12 13:48:00,54.7,46.9,29.71,WSW,248,8.5,9.2,75,0.00,,,0.12,WUHU216HW,2013-04-12 11:48:00,
2013-04-12 13:53:00,54.9,46.5,29.71,WSW,248,6.0,9.2,73,0.00,,,0.12,WUHU216HW,2013-04-12 11:53:00,
2013-04-12 13:58:00,54.9,46.7,29.71,West,270,10.1,10.1,74,0.00,,,0.12,WUHU216HW,2013-04-12 11:58:00,
2013-04-12 14:03:00,55.1,46.9,29.71,WSW,248,7.4,10.1,74,0.00,,,0.12,WUHU216HW,2013-04-12 12:03:00,
2013-04-12 14:08:00,55.1,46.6,29.71,SW,225,9.2,10.5,73,0.00,,,0.12,WUHU216HW,2013-04-12 12:08:00,
2013-04-12 14:13:00,55.3,46.1,29.72,WNW,293,8.3,12.1,71,0.00,,,0.12,WUHU216HW,2013-04-12 12:13:00,
2013-04-12 14:18:00,55.3,46.5,29.72,West,270,10.5,12.1,72,0.00,,,0.12,WUHU216HW,2013-04-12 12:18:00,
2013-04-12 14:23:00,55.4,46.6,29.72,West,270,9.6,12.5,72,0.00,,,0.12,WUHU216HW,2013-04-12 12:23:00,
2013-04-12 14:28:00,55.1,45.9,29.72,West,270,10.5,12.5,71,0.00,,,0.12,WUHU216HW,2013-04-12 12:28:00,
2013-04-12 14:33:00,54.7,45.6,29.72,WSW,248,11.2,12.1,71,0.00,,,0.12,WUHU216HW,2013-04-12 12:33:00,
2013-04-12 14:38:00,54.4,45.9,29.72,West,270,8.1,12.1,73,0.00,,,0.12,WUHU216HW,2013-04-12 12:38:00,
2013-04-12 14:43:00,54.5,46.1,29.72,SW,225,9.4,11.2,73,0.00,,,0.12,WUHU216HW,2013-04-12 12:43:00,
2013-04-12 14:48:00,54.5,45.7,29.72,WNW,293,9.4,9.4,72,0.00,,,0.12,WUHU216HW,2013-04-12 12:48:00,
2013-04-12 14:53:00,54.4,45.9,29.73,West,270,10.3,10.3,73,0.00,,,0.12,WUHU216HW,2013-04-12 12:53:00,
2013-04-12 14:58:00,54.5,46.1,29.73,West,270,5.1,10.3,73,0.00,,,0.12,WUHU216HW,2013-04-12 12:58:00,
2013-04-12 15:03:00,54.7,46.3,29.73,WNW,293,8.1,10.3,73,0.00,,,0.12,WUHU216HW,2013-04-12 13:03:00,
2013-04-12 15:08:00,54.5,46.1,29.73,WNW,293,6.3,8.5,73,0.00,,,0.12,WUHU216HW,2013-04-12 13:08:00,
2013-04-12 15:13:00,54.4,45.9,29.73,West,270,7.6,8.5,73,0.00,,,0.12,WUHU216HW,2013-04-12 13:13:00,
2013-04-12 15:18:00,54.2,45.7,29.73,WSW,248,6.9,8.5,73,0.00,,,0.12,WUHU216HW,2013-04-12 13:18:00,
2013-04-12 15:23:00,54.0,45.6,29.73,West,270,6.3,8.5,73,0.00,,,0.12,WUHU216HW,2013-04-12 13:23:00,
2013-04-12 15:29:00,53.6,44.8,29.73,WSW,248,5.4,9.8,72,0.00,,,0.12,WUHU216HW,2013-04-12 13:29:00,
2013-04-12 15:34:00,53.5,44.6,29.74,WNW,293,7.6,9.8,72,0.00,,,0.12,WUHU216HW,2013-04-12 13:34:00,
2013-04-12 15:39:00,53.3,44.1,29.74,WNW,293,6.3,12.5,71,0.00,,,0.12,WUHU216HW,2013-04-12 13:39:00,
2013-04-12 15:44:00,53.1,44.3,29.73,West,270,7.4,12.5,72,0.00,,,0.12,WUHU216HW,2013-04-12 13:44:00,
2013-04-12 15:49:00,53.3,44.5,29.74,WNW,293,5.8,10.7,72,0.00,,,0.12,WUHU216HW,2013-04-12 13:49:00,
2013-04-12 15:54:00,53.5,45.4,29.74,West,270,5.8,9.8,74,0.00,,,0.12,WUHU216HW,2013-04-12 13:54:00,
2013-04-12 15:59:00,53.5,45.4,29.73,West,270,3.6,9.8,74,0.00,,,0.12,WUHU216HW,2013-04-12 13:59:00,
2013-04-12 16:04:00,54.0,45.6,29.74,West,270,7.4,7.4,73,0.00,,,0.12,WUHU216HW,2013-04-12 14:04:00,
2013-04-12 16:09:00,54.4,46.3,29.74,WSW,248,9.2,9.2,74,0.00,,,0.12,WUHU216HW,2013-04-12 14:09:00,
2013-04-12 16:14:00,54.9,46.1,29.74,West,270,5.6,9.2,72,0.00,,,0.12,WUHU216HW,2013-04-12 14:14:00,
2013-04-12 16:19:00,55.1,46.3,29.74,NW,315,5.1,9.2,72,0.00,,,0.12,WUHU216HW,2013-04-12 14:19:00,
2013-04-12 16:24:00,54.9,45.7,29.74,West,270,5.1,8.5,71,0.00,,,0.12,WUHU216HW,2013-04-12 14:24:00,
2013-04-12 16:29:00,54.7,45.6,29.74,West,270,6.3,7.6,71,0.00,,,0.12,WUHU216HW,2013-04-12 14:29:00,
2013-04-12 16:34:00,54.7,45.9,29.74,West,270,5.4,8.5,72,0.00,,,0.12,WUHU216HW,2013-04-12 14:34:00,
2013-04-12 16:39:00,54.9,45.7,29.75,WSW,248,5.4,8.5,71,0.00,,,0.12,WUHU216HW,2013-04-12 14:39:00,
2013-04-12 16:44:00,54.9,45.4,29.75,West,270,5.4,8.5,70,0.00,,,0.12,WUHU216HW,2013-04-12 14:44:00,
2013-04-12 16:49:00,55.1,45.1,29.75,WNW,293,7.8,7.8,69,0.00,,,0.12,WUHU216HW,2013-04-12 14:49:00,
2013-04-12 16:54:00,54.7,44.7,29.75,WNW,293,7.8,7.8,69,0.00,,,0.12,WUHU216HW,2013-04-12 14:54:00,
2013-04-12 16:59:00,54.0,44.1,29.76,WSW,248,7.2,10.3,69,0.00,,,0.12,WUHU216HW,2013-04-12 14:59:00,
2013-04-12 17:04:00,53.3,43.4,29.76,WSW,248,7.6,10.3,69,0.00,,,0.12,WUHU216HW,2013-04-12 15:04:00,
2013-04-12 17:09:00,52.4,43.3,29.76,SW,225,6.7,10.1,71,0.00,,,0.12,WUHU216HW,2013-04-12 15:09:00,
2013-04-12 17:14:00,52.2,43.1,29.75,WSW,248,7.4,10.1,71,0.00,,,0.12,WUHU216HW,2013-04-12 15:14:00,
2013-04-12 17:19:00,51.8,42.9,29.76,West,270,5.1,8.7,71,0.00,,,0.12,WUHU216HW,2013-04-12 15:19:00,
2013-04-12 17:24:00,51.7,42.7,29.76,WSW,248,5.8,8.1,71,0.00,,,0.12,WUHU216HW,2013-04-12 15:24:00,
2013-04-12 17:29:00,51.5,42.9,29.76,WSW,248,3.4,5.8,72,0.00,,,0.12,WUHU216HW,2013-04-12 15:29:00,
2013-04-12 17:34:00,51.7,43.0,29.76,WSW,248,6.0,6.0,72,0.00,,,0.12,WUHU216HW,2013-04-12 15:34:00,
2013-04-12 17:39:00,52.2,43.5,29.76,West,270,3.4,6.0,72,0.00,,,0.12,WUHU216HW,2013-04-12 15:39:00,
2013-04-12 17:44:00,52.4,43.7,29.76,West,270,4.9,6.3,72,0.00,,,0.12,WUHU216HW,2013-04-12 15:44:00,
2013-04-12 17:49:00,52.6,43.8,29.76,WSW,248,4.7,7.2,72,0.00,,,0.12,WUHU216HW,2013-04-12 15:49:00,
2013-04-12 17:54:00,52.7,44.0,29.76,West,270,4.0,7.2,72,0.00,,,0.12,WUHU216HW,2013-04-12 15:54:00,
2013-04-12 17:59:00,52.6,43.8,29.76,West,270,5.4,5.8,72,0.00,,,0.12,WUHU216HW,2013-04-12 15:59:00,
2013-04-12 18:04:00,52.2,43.8,29.76,West,270,3.8,5.4,73,0.00,,,0.12,WUHU216HW,2013-04-12 16:04:00,
2013-04-12 18:09:00,52.2,43.8,29.76,West,270,3.1,5.4,73,0.00,,,0.12,WUHU216HW,2013-04-12 16:09:00,
2013-04-12 18:14:00,52.6,44.6,29.76,WNW,293,2.0,4.5,74,0.00,,,0.12,WUHU216HW,2013-04-12 16:14:00,
2013-04-12 18:20:00,53.1,45.0,29.76,WSW,248,6.7,6.7,74,0.00,,,0.12,WUHU216HW,2013-04-12 16:20:00,
2013-04-12 18:25:00,53.5,45.0,29.76,WSW,248,3.6,6.7,73,0.00,,,0.12,WUHU216HW,2013-04-12 16:25:00,
2013-04-12 18:30:00,53.3,44.1,29.76,West,270,3.8,5.6,71,0.00,,,0.12,WUHU216HW,2013-04-12 16:30:00,
2013-04-12 18:35:00,52.9,44.2,29.75,WSW,248,5.1,5.6,72,0.00,,,0.12,WUHU216HW,2013-04-12 16:35:00,
2013-04-12 18:40:00,52.7,43.7,29.75,WSW,248,4.7,5.4,71,0.00,,,0.12,WUHU216HW,2013-04-12 16:40:00,
2013-04-12 18:45:00,52.7,44.0,29.76,WSW,248,4.7,5.1,72,0.00,,,0.12,WUHU216HW,2013-04-12 16:45:00,
2013-04-12 18:50:00,52.7,44.0,29.75,SSW,203,5.1,5.1,72,0.00,,,0.12,WUHU216HW,2013-04-12 16:50:00,
2013-04-12 18:55:00,52.9,44.2,29.75,West,270,4.0,5.4,72,0.00,,,0.12,WUHU216HW,2013-04-12 16:55:00,
2013-04-12 19:00:00,52.9,44.2,29.75,WSW,248,4.5,5.4,72,0.00,,,0.12,WUHU216HW,2013-04-12 17:00:00,
2013-04-12 19:05:00,52.7,43.7,29.75,West,270,2.7,4.7,71,0.00,,,0.12,WUHU216HW,2013-04-12 17:05:00,
2013-04-12 19:10:00,52.6,43.8,29.76,WSW,248,3.4,4.7,72,0.00,,,0.12,WUHU216HW,2013-04-12 17:10:00,
2013-04-12 19:15:00,52.6,43.8,29.76,WSW,248,3.4,4.7,72,0.00,,,0.12,WUHU216HW,2013-04-12 17:15:00,
2013-04-12 19:20:00,52.2,43.1,29.76,SW,225,4.0,4.7,71,0.00,,,0.12,WUHU216HW,2013-04-12 17:20:00,
2013-04-12 19:25:00,52.0,43.0,29.76,WSW,248,2.7,4.7,71,0.00,,,0.12,WUHU216HW,2013-04-12 17:25:00,
2013-04-12 19:30:00,51.7,42.7,29.76,SW,225,2.9,4.0,71,0.00,,,0.12,WUHU216HW,2013-04-12 17:30:00,
2013-04-12 19:35:00,51.5,42.5,29.76,WSW,248,2.7,4.5,71,0.00,,,0.12,WUHU216HW,2013-04-12 17:35:00,
2013-04-12 19:40:00,51.3,42.3,29.76,SW,225,3.1,4.5,71,0.00,,,0.12,WUHU216HW,2013-04-12 17:40:00,
2013-04-12 19:46:00,50.9,42.0,29.76,SSW,203,2.9,3.4,71,0.00,,,0.12,WUHU216HW,2013-04-12 17:46:00,
2013-04-12 19:51:00,50.6,41.6,29.76,SW,225,2.2,4.3,71,0.00,,,0.12,WUHU216HW,2013-04-12 17:51:00,
2013-04-12 19:56:00,50.4,41.8,29.76,SW,225,2.5,4.3,72,0.00,,,0.12,WUHU216HW,2013-04-12 17:56:00,
2013-04-12 20:01:00,50.0,41.4,29.76,SSW,203,2.9,4.3,72,0.00,,,0.12,WUHU216HW,2013-04-12 18:01:00,
2013-04-12 20:06:00,49.9,41.2,29.76,SSW,203,2.2,4.3,72,0.00,,,0.12,WUHU216HW,2013-04-12 18:06:00,
2013-04-12 20:11:00,49.7,41.1,29.76,SSW,203,3.1,3.4,72,0.00,,,0.12,WUHU216HW,2013-04-12 18:11:00,
2013-04-12 20:17:00,49.3,40.7,29.77,SW,225,1.8,3.4,72,0.00,,,0.12,WUHU216HW,2013-04-12 18:17:00,
2013-04-12 20:22:00,49.3,40.7,29.77,South,180,2.5,4.0,72,0.00,,,0.12,WUHU216HW,2013-04-12 18:22:00,
2013-04-12 20:27:00,49.1,40.5,29.77,South,180,5.1,6.3,72,0.00,,,0.12,WUHU216HW,2013-04-12 18:27:00,
2013-04-12 20:29:00,49.0,40.6,29.77,SW,225,5.1,7.2,73,0.00,,,0.12,WUHU216HW,2013-04-12 18:29:00,
2013-04-12 20:35:00,49.0,40.6,29.77,SW,225,3.4,7.2,73,0.00,,,0.12,WUHU216HW,2013-04-12 18:35:00,
2013-04-12 20:41:00,48.8,40.4,29.78,SW,225,2.7,4.7,73,0.00,,,0.12,WUHU216HW,2013-04-12 18:41:00,
2013-04-12 20:47:00,49.0,40.6,29.78,SSE,158,1.1,4.0,73,0.00,,,0.12,WUHU216HW,2013-04-12 18:47:00,
2013-04-12 20:54:00,48.8,40.4,29.78,West,270,0.4,4.3,73,0.00,,,0.12,WUHU216HW,2013-04-12 18:54:00,
2013-04-12 20:59:00,48.6,40.2,29.78,WSW,248,1.1,2.9,73,0.00,,,0.12,WUHU216HW,2013-04-12 18:59:00,
2013-04-12 21:05:00,48.1,39.8,29.79,SW,225,1.1,1.6,73,0.00,,,0.12,WUHU216HW,2013-04-12 19:05:00,
2013-04-12 21:12:00,47.5,39.6,29.79,WSW,248,2.0,2.5,74,0.00,,,0.12,WUHU216HW,2013-04-12 19:12:00,
2013-04-12 21:26:00,47.5,40.3,29.79,SSW,203,3.4,5.4,76,0.00,,,0.12,WUHU216HW,2013-04-12 19:26:00,
2013-04-12 21:31:00,47.9,40.6,29.79,SW,225,6.3,6.7,76,0.00,,,0.12,WUHU216HW,2013-04-12 19:31:00,
2013-04-12 21:37:00,48.1,40.8,29.79,SW,225,2.9,6.7,76,0.00,,,0.12,WUHU216HW,2013-04-12 19:37:00,
2013-04-12 21:42:00,48.2,41.0,29.79,SW,225,4.7,8.1,76,0.00,,,0.12,WUHU216HW,2013-04-12 19:42:00,
2013-04-12 21:47:00,48.2,41.0,29.79,South,180,5.1,8.1,76,0.00,,,0.12,WUHU216HW,2013-04-12 19:47:00,
2013-04-12 21:52:00,48.2,40.6,29.79,SSW,203,6.9,6.9,75,0.00,,,0.12,WUHU216HW,2013-04-12 19:52:00,
2013-04-12 21:57:00,48.4,40.8,29.79,South,180,6.7,6.9,75,0.00,,,0.12,WUHU216HW,2013-04-12 19:57:00,
2013-04-12 22:02:00,48.4,40.8,29.79,SSW,203,5.4,6.9,75,0.00,,,0.12,WUHU216HW,2013-04-12 20:02:00,
2013-04-12 22:07:00,48.6,41.0,29.79,SW,225,5.4,7.8,75,0.00,,,0.12,WUHU216HW,2013-04-12 20:07:00,
2013-04-12 22:12:00,48.6,41.0,29.79,SSW,203,5.6,7.8,75,0.00,,,0.12,WUHU216HW,2013-04-12 20:12:00,
2013-04-12 22:17:00,48.6,41.0,29.79,SSW,203,8.1,8.1,75,0.00,,,0.12,WUHU216HW,2013-04-12 20:17:00,
2013-04-12 22:22:00,48.8,41.1,29.79,SSW,203,6.0,8.5,75,0.00,,,0.12,WUHU216HW,2013-04-12 20:22:00,
2013-04-12 22:27:00,49.0,41.0,29.79,SSW,203,4.7,8.5,74,0.00,,,0.12,WUHU216HW,2013-04-12 20:27:00,
2013-04-12 22:32:00,49.0,41.0,29.79,SE,135,4.0,8.1,74,0.00,,,0.12,WUHU216HW,2013-04-12 20:32:00,
2013-04-12 22:37:00,49.0,41.0,29.79,South,180,5.8,8.1,74,0.00,,,0.12,WUHU216HW,2013-04-12 20:37:00,
2013-04-12 22:42:00,49.0,41.0,29.79,SW,225,5.4,7.6,74,0.00,,,0.12,WUHU216HW,2013-04-12 20:42:00,
2013-04-12 22:47:00,49.0,41.0,29.79,SSW,203,7.6,8.3,74,0.00,,,0.12,WUHU216HW,2013-04-12 20:47:00,
2013-04-12 22:52:00,48.8,40.8,29.79,SSE,158,5.6,8.5,74,0.00,,,0.12,WUHU216HW,2013-04-12 20:52:00,
2013-04-12 22:57:00,48.8,40.8,29.79,SSW,203,5.8,8.5,74,0.00,,,0.12,WUHU216HW,2013-04-12 20:57:00,
2013-04-12 23:02:00,48.6,40.6,29.79,SSW,203,6.5,7.8,74,0.00,,,0.12,WUHU216HW,2013-04-12 21:02:00,
2013-04-12 23:07:00,48.6,41.0,29.80,SW,225,4.7,7.8,75,0.00,,,0.12,WUHU216HW,2013-04-12 21:07:00,
2013-04-12 23:13:00,48.2,40.6,29.79,SW,225,5.1,7.6,75,0.00,,,0.12,WUHU216HW,2013-04-12 21:13:00,
2013-04-12 23:17:00,48.1,40.4,29.80,SSW,203,4.0,6.3,75,0.00,,,0.12,WUHU216HW,2013-04-12 21:17:00,
2013-04-12 23:22:00,47.9,40.2,29.80,SW,225,4.0,5.4,75,0.00,,,0.12,WUHU216HW,2013-04-12 21:22:00,
2013-04-12 23:27:00,47.7,40.2,29.80,SSW,203,4.5,5.4,75,0.00,,,0.12,WUHU216HW,2013-04-12 21:27:00,
2013-04-12 23:32:00,47.5,40.0,29.80,SSW,203,4.9,5.6,75,0.00,,,0.12,WUHU216HW,2013-04-12 21:32:00,
2013-04-12 23:37:00,47.5,40.3,29.80,SW,225,3.4,6.9,76,0.00,,,0.12,WUHU216HW,2013-04-12 21:37:00,
2013-04-12 23:43:00,47.5,40.3,29.80,SW,225,4.9,6.9,76,0.00,,,0.12,WUHU216HW,2013-04-12 21:43:00,
2013-04-12 23:48:00,47.7,40.4,29.80,SW,225,6.0,6.5,76,0.00,,,0.12,WUHU216HW,2013-04-12 21:48:00,
2013-04-12 23:53:00,47.7,40.8,29.80,NW,315,7.6,7.6,77,0.00,,,0.12,WUHU216HW,2013-04-12 21:53:00,
2013-04-12 23:58:00,47.7,40.8,29.80,SW,225,8.1,8.5,77,0.00,,,0.12,WUHU216HW,2013-04-12 21:58:00,